VKG491 LCLK-ESMX

Flight info

Callsign VKG491
Flight time N/A
Altitude 34000
Route PHA M31 GENOS DCT PEDER DCT EVENO UM601 EXELA UN127 IMR UN128 LMO DCT EVIVI L863 OKANA DCT PARAK DCT BILNA DCT SOPAV DCT REGLI DCT DENKO L996 GOSOT DCT JX
Aircraft A321/M-SDE3FGHIRWY/LB1

Departure

Time 2026-05-06 18:43
Airport Larnaca International Airport (LCLK)

Arrival

Time N/A
Airport Växjö Kronoberg Airport (ESMX)
Time Latitude Longitude Altitude Speed Heading
2026-05-06 18:18 34.87076 33.61017 22 ft 0 kts 225°
2026-05-06 18:32 34.87082 33.61024 21 ft 4 kts 226°
2026-05-06 18:32 34.87099 33.61049 20 ft 4 kts 245°
2026-05-06 18:32 34.87105 33.61073 24 ft 4 kts 250°
2026-05-06 18:33 34.87117 33.61092 21 ft 4 kts 175°
2026-05-06 18:33 34.87136 33.61079 20 ft 4 kts 135°
2026-05-06 18:33 34.87144 33.61068 20 ft 0 kts 135°
2026-05-06 18:35 34.87138 33.61076 20 ft 2 kts 135°
2026-05-06 18:35 34.87119 33.61098 21 ft 5 kts 135°
2026-05-06 18:36 34.87087 33.61136 20 ft 8 kts 136°
2026-05-06 18:36 34.87041 33.61191 20 ft 11 kts 135°
2026-05-06 18:36 34.86981 33.61263 20 ft 14 kts 135°
2026-05-06 18:36 34.86902 33.61358 17 ft 19 kts 136°
2026-05-06 18:37 34.86902 33.61455 19 ft 13 kts 47°
2026-05-06 18:37 34.86947 33.61509 18 ft 15 kts 45°
2026-05-06 18:37 34.87055 33.61642 21 ft 17 kts 45°
2026-05-06 18:37 34.87143 33.61750 21 ft 20 kts 45°
2026-05-06 18:38 34.87247 33.61876 21 ft 21 kts 45°
2026-05-06 18:38 34.87318 33.61963 21 ft 23 kts 45°
2026-05-06 18:38 34.87435 33.62107 18 ft 24 kts 45°
2026-05-06 18:38 34.87551 33.62248 16 ft 24 kts 45°
2026-05-06 18:39 34.87663 33.62385 18 ft 21 kts 45°
2026-05-06 18:39 34.87764 33.62508 18 ft 20 kts 45°
2026-05-06 18:39 34.87855 33.62620 22 ft 17 kts 45°
2026-05-06 18:40 34.88032 33.62836 20 ft 20 kts 45°
2026-05-06 18:40 34.88134 33.62957 19 ft 22 kts 44°
2026-05-06 18:40 34.88248 33.63096 18 ft 24 kts 46°
2026-05-06 18:40 34.88371 33.63248 16 ft 26 kts 45°
2026-05-06 18:41 34.88438 33.63391 21 ft 14 kts 121°
2026-05-06 18:41 34.88387 33.63481 21 ft 12 kts 105°
2026-05-06 18:41 34.88356 33.63568 18 ft 11 kts 152°
2026-05-06 18:41 34.88308 33.63531 18 ft 8 kts 225°
2026-05-06 18:42 34.88227 33.63432 17 ft 39 kts 225°
2026-05-06 18:42 34.87870 33.62998 20 ft 103 kts 225°
2026-05-06 18:42 34.87234 33.62220 21 ft 153 kts 225°
2026-05-06 18:42 34.86389 33.61196 112 ft 183 kts 224°
2026-05-06 18:43 34.85521 33.60107 849 ft 175 kts 227°
2026-05-06 18:43 34.84695 33.59015 1508 ft 176 kts 228°
2026-05-06 18:43 34.83850 33.57897 1994 ft 187 kts 229°
2026-05-06 18:43 34.82922 33.56679 2155 ft 206 kts 229°
2026-05-06 18:44 34.81895 33.55344 2299 ft 224 kts 228°
2026-05-06 18:44 34.80776 33.53893 2413 ft 249 kts 229°
2026-05-06 18:44 34.79566 33.52329 2822 ft 262 kts 228°
2026-05-06 18:44 34.78283 33.50683 3505 ft 266 kts 227°
2026-05-06 18:45 34.77002 33.49045 4206 ft 269 kts 227°
2026-05-06 18:45 34.75703 33.47386 4918 ft 272 kts 227°
2026-05-06 18:45 34.74410 33.45739 5611 ft 274 kts 227°
2026-05-06 18:45 34.73075 33.44038 6306 ft 276 kts 227°
2026-05-06 18:46 34.71742 33.42336 6967 ft 278 kts 227°
2026-05-06 18:46 34.70403 33.40624 7593 ft 281 kts 227°
2026-05-06 18:46 34.69153 33.38795 8214 ft 282 kts 240°
2026-05-06 18:46 34.68150 33.35715 9100 ft 282 kts 262°
2026-05-06 18:47 34.68397 33.25942 10862 ft 314 kts 274°
2026-05-06 18:47 34.68836 33.14343 11650 ft 373 kts 274°
2026-05-06 18:47 34.69355 33.01112 12770 ft 406 kts 274°
2026-05-06 18:47 34.69857 32.87474 15110 ft 399 kts 274°
2026-05-06 18:48 34.70358 32.74014 17042 ft 401 kts 274°
2026-05-06 18:48 34.70850 32.60412 18701 ft 407 kts 274°
2026-05-06 18:48 34.70951 32.46547 20185 ft 414 kts 268°
2026-05-06 18:48 34.70216 32.32499 21530 ft 420 kts 269°
2026-05-06 18:49 34.69463 32.18174 22835 ft 428 kts 268°
2026-05-06 18:49 34.68648 32.03657 23991 ft 435 kts 269°
2026-05-06 18:49 34.68983 31.89023 25092 ft 434 kts 289°
2026-05-06 18:49 34.74678 31.76309 26603 ft 425 kts 300°
2026-05-06 18:50 34.80498 31.64207 28202 ft 416 kts 300°
2026-05-06 18:50 34.86400 31.52057 29696 ft 408 kts 301°
2026-05-06 18:50 34.92115 31.40216 30942 ft 402 kts 300°
2026-05-06 18:50 34.97738 31.28543 32038 ft 398 kts 300°
2026-05-06 18:51 35.03237 31.17076 33064 ft 396 kts 300°
2026-05-06 18:51 35.08847 31.05307 34130 ft 394 kts 300°
2026-05-06 18:51 35.10304 31.02255 34110 ft 395 kts 300°
2026-05-06 18:52 35.13070 30.96462 34092 ft 395 kts 300°
2026-05-06 18:52 35.15837 30.90645 34103 ft 397 kts 300°
2026-05-06 18:53 35.18907 30.85054 34100 ft 397 kts 311°
2026-05-06 18:53 35.22695 30.80121 34100 ft 398 kts 311°
2026-05-06 18:54 35.27270 30.74130 34101 ft 398 kts 311°
2026-05-06 18:54 35.42395 30.54308 34104 ft 398 kts 311°
2026-05-06 18:55 35.57442 30.34451 34093 ft 396 kts 312°
2026-05-06 18:55 35.72383 30.14633 34093 ft 395 kts 312°
2026-05-06 18:56 35.83576 29.98637 34084 ft 398 kts 297°
2026-05-06 18:56 35.90725 29.72778 34068 ft 400 kts 291°
2026-05-06 18:57 36.01074 29.49260 34150 ft 398 kts 320°